User: anonymous   Login
Location: Unspecified
(0.0000°N, 0.0000°E)
Time: 23:26:26
(UTC+00:00)
Language:

Milstar DFS 2 - Orbit

View from above orbital plane
View from above orbital plane
View from above satellite
View from above satellite

Ground track
Ground track

The orbit data is extracted from the following two-line orbital elements,

1 23712U 95060A   17343.11099328 0.00000000  00000-0  00000-0 0    09
2 23712  12.6243  27.9313 0003453 142.4233 217.6161  1.00270000    08
Epoch (UTC): 09 December 2017 02:39:49
Eccentricity: 0.0003453
inclination: 12.6243°
perigee height: 35772 km
apogee height: 35801 km
right ascension of ascending node: 27.9313°
argument of perigee: 142.4233°
revolutions per day: 1.00270000
mean anomaly at epoch: 217.6161°
orbit number at epoch: 0

The dashed part of the orbit path shows where the satellite is in the earth's shadow,  

DLR